Regional Weather Roundup
Issued by NWS

Home | Current Version | Previous Version | Text Only | Print | Product List | Glossary Off
Versions: 1 2 3 4 5 6 7 8 9 10 11 12 13 14 15 16 17 18 19 20 21 22 23 24 25 26 27 28 29 30 31 32 33 34 35 36 37 38 39 40 41 42 43 44 45 46 47 48 49 50

000
ASUS43 KDMX 011407
RWRIA

WEATHER ROUNDUP FOR IOWA
NATIONAL WEATHER SERVICE DES MOINES IA
800 AM CST SUN MAR 01 2015

NOTE: "FAIR" INDICATES FEW OR NO CLOUDS BELOW 12,000 FEET WITH NO
SIGNIFICANT WEATHER AND/OR OBSTRUCTIONS TO VISIBILITY.

* - THESE STATIONS ARE NOT NWS STATIONS...THUS NOT UNDER NWS
QUALITY CONTROL.  THEY ALSO DO NOT REPORT WEATHER SUCH
AS PRECIPITATION OR FOG.

IAZ001>003-012>014-020>022-031>034-043>046-011500-
   NORTHWEST IOWA

CITY           SKY/WX    TMP DP  RH WIND       PRES   REMARKS
CARROLL *      PTSUNNY   18  14  86 W7        30.31S WCI   8
CHEROKEE *     MOSUNNY   14  12  92 W3        30.32R
DENISON *      CLOUDY    14  14 100 CALM      30.30S
LE MARS *      CLOUDY    12  10  92 CALM      30.34R
ORANGE CITY *  CLEAR     14  10  85 NW5       30.30R WCI   6
SHELDON *      MOCLDY    14  12  92 W6        30.30R WCI   5
SIOUX CITY     PTCLDY    16  12  84 NW5       30.35R WCI   9
SPENCER        CLOUDY    14   9  80 W9        30.29R WCI   2
STORM LAKE *   SUNNY     14  12  92 W12       30.30R WCI   0
$$

IAZ055>058-069>071-079>083-090>094-011500-
   SOUTHWEST IOWA

CITY           SKY/WX    TMP DP  RH WIND       PRES   REMARKS
ATLANTIC *     CLOUDY    18  14  86 S3        30.33S
AUDUBON *      SUNNY     16  12  86 SW3       30.31R
CLARINDA *     CLOUDY    21  19  93 S3        30.39R
COUNCIL BLFS * CLOUDY    19  18  93 SW6       30.32S WCI  11
CRESTON *      CLOUDY    21  18  86 SW6       30.33S WCI  14
HARLAN  *      SUNNY     10  10 100 S3        30.36R
LAMONI         LGT SNOW  20  17  88 S3        30.35R FOG
RED OAK *      CLOUDY    21  18  86 CALM      30.35S
SHENANDOAH *   CLOUDY    21  19  93 S3        30.37S
$$

IAZ047>049-059>061-072>074-084-011500-
   CENTRAL IOWA

CITY           SKY/WX    TMP DP  RH WIND       PRES   REMARKS
AMES           MOSUNNY   15  11  83 SW3       30.34R
ANKENY *       PTSUNNY   21  16  79 CALM      30.34F
CHARITON *     CLOUDY    19  18  93 W5        30.35S FOG     WCI  13
DES MOINES     CLOUDY    22  16  78 SW3       30.34S
GRINNELL*      FLURRIES  18  16  93 SW6       30.34S WCI   9
KNOXVILLE *    CLOUDY    19  16  86 SW6       30.35R WCI  11
MARSHALLTOWN   MOSUNNY   13  11  92 SW6       30.32S FOG     WCI   4
PELLA *        LGT SNOW  19  19 100 S3        30.37S
PERRY *          N/A     18  14  86 SW5       30.33S WCI  11
$$

IAZ004>006-015-016-023>025-035-036-011500-
   NORTH CENTRAL IOWA

CITY           SKY/WX    TMP DP  RH WIND       PRES   REMARKS
ALGONA *       SUNNY     10   9  92 W9        30.30R WCI  -2
CLARION *      SUNNY     14  12  92 SW8       30.31R WCI   3
ESTHERVILLE    CLOUDY    14  11  87 W7        30.28R WCI   4
FORT DODGE *   CLOUDY    16  12  86 SW7       30.32R WCI   6
MASON CITY     MOSUNNY   14  11  87 W14       30.29R WCI  -1
FOREST CITY *  CLOUDY    12   9  85 SW3       30.28R FOG
IOWA FALLS *     N/A     14  12  92 SW8       30.32R FOG     WCI   3
$$

IAZ007>011-017>019-026>030-037>042-050>054-066-011500-
   NORTHEAST IOWA

CITY           SKY/WX    TMP DP  RH WIND       PRES   REMARKS
CEDAR RAPIDS   LGT SNOW  14  13  95 S7        30.34S WCI   4
CHARLES CITY * PTSUNNY   14  12  92 SW8       30.30R FOG     WCI   3
CLINTON *      CLOUDY    12  10  92 CALM      30.39F VSB 1/2
DECORAH *      CLOUDY    14  12  92 VRB7      30.28S FOG     WCI   4
DUBUQUE        CLOUDY    11   9  92 S6        30.32R FOG     WCI   1
MONTICELLO *   CLOUDY    12  10  92 CALM      30.35F FOG
OELWEIN *      SUNNY     10   7  85 S7        30.32R FOG     WCI   0
WATERLOO       MOSUNNY   13  11  92 SW3       30.33R FOG
$$

IAZ064-065-067-068-078-011500-
   EAST CENTRAL IOWA

CITY           SKY/WX    TMP DP  RH WIND       PRES   REMARKS
DAVENPORT      FOG       13  10  88 CALM      30.37F VSB 3/4
IOWA CITY      CLOUDY    14  12  92 CALM      30.39S FOG
MT. PLEASANT * LGT SNOW  14  12  92 CALM      30.39R VSB 1
MUSCATINE *    CLOUDY    14  12  92 CALM      30.40R FOG
QUAD CITIES    CLOUDY    13  10  88 CALM      30.38R FOG
$$

IAZ062-063-075>077-085>089-095>099-011500-
   SOUTHEAST IOWA

CITY           SKY/WX    TMP DP  RH WIND       PRES   REMARKS
BURLINGTON     LGT SNOW  18  16  92 N3        30.37R VSB 3/4
FAIRFIELD *    PTSUNNY   16  12  86 CALM      30.37S
FORT MADISON * SNOW      18  18 100 CALM      30.39R VSB 1/4
KEOKUK *       LGT SNOW  21  19  93 NW3       30.38R
OSKALOOSA *    CLOUDY    18  16  93 CALM      30.37R FOG
CENTERVILLE *  FLURRIES  18  18 100 CALM      30.37R
OTTUMWA        CLOUDY    17  15  92 CALM      30.36S FOG
WASHINGTON *   CLOUDY    14  14 100 CALM      30.37S FOG
$$

ABBREVIATIONS USED IN REMARKS
   TC - TEMPERATURES IN CELSIUS
  WCI - WIND CHILL INDEX
   HX - HEAT INDEX
  VSB - VISIBILITY
$$




USA.gov is the U.S. government's official web portal to all federal, state and local government web resources and services.